Regional Weather Roundup
Issued by NWS San Diego, CA

Home | Current Version | Previous Version | Text Only | Print | Product List | Glossary On
Versions: 1 2 3 4 5 6 7 8 9 10 11 12 13 14 15 16 17 18 19 20 21 22 23 24 25 26 27
000
ASUS46 KSGX 061211
RWRSGX

SAN DIEGO HOURLY WEATHER ROUNDUP
NATIONAL WEATHER SERVICE SAN DIEGO CA
500 AM PDT FRI MAY 06 2016

NOTE: "FAIR" INDICATES FEW OR NO CLOUDS BELOW 12,000 FEET WITH NO
SIGNIFICANT WEATHER AND/OR OBSTRUCTIONS TO VISIBILITY.

CAZ042-043-060-061-PZZ750-775-061300-

GREATER SAN DIEGO AREA

CITY           SKY/WX    TMP DP  RH WIND       PRES   REMARKS
LINDBERGH FLD  LGT RAIN  59  55  87 SE3       29.86F
POINT LOMA       N/A     55  55 100 E2          N/A
NATIONAL CITY    N/A     58  55  89 CALM      29.86F
CHULA VISTA      N/A     57  56  95 CALM      29.78S
IMPERIAL BEACH LGT RAIN  59  55  87 E6        29.85F
BROWN FIELD    LGT RAIN  55  54  96 S5        29.85S
MIRAMAR MCAS   LGT RAIN  59  54  83 SE3       29.84S
MONTGOMERY FLD LGT RAIN  57  54  89 CALM      29.84F

$$

NORTH SAN DIEGO COUNTY

CITY           SKY/WX    TMP DP  RH WIND       PRES   REMARKS
CAMP PENDLETON CLOUDY    51  51 100 CALM      29.84S
OCEANSIDE AP   CLOUDY    54  52  93 CALM      29.83F
OCEANSIDE HBR    N/A     57  55  94 CALM      29.86S
VISTA            N/A     55  49  83 CALM      29.81F
CARLSBAD       LGT RAIN  57  54  89 E3        29.83S
DEL MAR          N/A     56  55  97 CALM      29.87S
LA JOLLA SCRIP   N/A     56  55  94 E5        29.83F
FALLBROOK        N/A     53  53 100 CALM      29.84S
ESCONDIDO        N/A     56  53  90 SE3       29.85F
SAN MARCOS       N/A     55  48  78 CALM      29.82S
POWAY            N/A     55  52  90 CALM      29.86S

$$

EAST SAN DIEGO COUNTY

CITY           SKY/WX    TMP DP  RH WIND       PRES   REMARKS
RAMONA         LGT RAIN  53  51  93 CALM      29.84F FOG
SANTEE LAKES     N/A     56  54  93 CALM      29.84S
LA MESA          N/A     55  53  93 CALM      29.77F
JAMUL            N/A     54  52  94 CALM      29.85S
DESCANSO N       N/A     46  45  95 W2        29.74F
MT. LAGUNA OBS   N/A     36  36 100 W20       29.45  WCI  25
CAMPO            N/A     49  47  93 SW8       29.80S

$$

ORANGE COUNTY AND THE LOS ANGELES BASIN

CITY           SKY/WX    TMP DP  RH WIND       PRES   REMARKS
JOHN WAYNE AP  CLOUDY    58  54  86 E3        29.82F
LAKE FOREST FR   N/A     51  47  88 CALM      29.73F
HUNTINGTON BCH   N/A     58  55  91 CALM      29.84F
LOS ALAMITOS   CLOUDY    57  55  93 CALM      29.82F
FULLERTON      MOCLDY    58  53  84 CALM      29.82S
LONG BEACH     CLOUDY    58  54  86 CALM      29.83S
L.A. AP        MOCLDY    58  54  86 CALM      29.83S
L.A. DOWNTOWN  CLOUDY    58  54  86 CALM      29.82F

$$

THE INLAND EMPIRE

CITY           SKY/WX    TMP DP  RH WIND       PRES   REMARKS
CORONA         CLOUDY    56  52  86 SE3       29.84S
CHINO          CLOUDY    56  52  86 S3        29.84S
ONTARIO        MOCLDY    54  51  90 CALM      29.83S
RIVERSIDE AP   CLOUDY    55  52  89 SE3       29.83F
MORENO VALLEY    N/A     53  52  96 CALM      27.96S
MARCH ARB      CLOUDY    54  54 100 S3        29.83S
HORSETHIEF CYN   N/A     51  47  86 CALM      29.87S
PERRIS           N/A     52  51  96 S2        29.85S
HEMET EAST       N/A     59  42  51 W6        29.80S
FRENCH VALLEY  CLOUDY    54  50  87 S3        29.84S
TEMECULA         N/A     53  52  97 NE2       29.81F

$$

SAN BERNARDINO AND RIVERSIDE COUNTY MOUNTAINS

CITY           SKY/WX    TMP DP  RH WIND       PRES   REMARKS
BIG BEAR AP    MOCLDY    34  30  86 SW3       29.84F
ANGELUS OAKS     N/A     38  36  91 CALM      29.76S
PINE COVE        N/A     34  34  99 N1        29.79R

$$

SOUTHERN DESERT INCLUDING THE COACHELLA VALLEY

CITY           SKY/WX    TMP DP  RH WIND       PRES   REMARKS
PALM SPRINGS   CLEAR     60  45  57 SE3       29.76S
THOUSAND PALMS   N/A     62  45  53 NW9       29.73S
PALM DESERT      N/A     61  47  60 CALM        N/A
THERMAL        CLEAR     62  45  53 W8        29.73S
BLYTHE         CLEAR     60  47  61 S10       29.74R
IMPERIAL AP    CLEAR     62  45  53 W9        29.77R
YUMA AZ        PTCLDY    61  46  57 S5        29.79

$$

UPPER DESERT

CITY           SKY/WX    TMP DP  RH WIND       PRES   REMARKS
VICTORVILLE AP CLEAR     46  39  76 CALM      29.81F
HESPERIA         N/A     47  42  84 W3        29.93R
PALMDALE       CLEAR     47  42  83 SW8       29.81S
LANCASTER      CLEAR     49  42  77 SW12      29.81S
EDWARDS AFB    CLEAR     48  42  80 SW10      29.78S
DAGGETT        CLEAR     54  41  61 W14       29.78S
29 PALMS N     CLEAR     53  38  56 W10       29.84S
NEEDLES        CLOUDY    69  42  37 W9        29.71R

$$

REGIONAL REPORTS

CITY           SKY/WX    TMP DP  RH WIND       PRES   REMARKS
SANTA BARBARA  PTCLDY    56  51  84 CALM      29.82F
SANDBERG       CLOUDY    44  40  85 NW8       29.83F
LAS VEGAS NV   MOCLDY    61  39  44 S13       29.68R
PHOENIX AZ     PTCLDY    68  42  38 N5        29.78S
TIJUANA        LGT RAIN  55  52  88 S5        29.88
ENSENADA NW      N/A     59  32  35 E12       29.82F

$$

OFFSHORE ISLANDS

CITY           SKY/WX    TMP DP  RH WIND       PRES   REMARKS
CATALINA ARPT  MOCLDY    51  50  96 W8        29.84S
SAN NICOLAS IS CLEAR    N/A N/A N/A W9        29.83S

$$

MARINE AND OFFSHORE BUOY REPORTS

STATION/POSITION SKY/WX   TEMP    WIND        PRES    SWELL
                          AIR SEA DIR/SP/G            HT/PER/DIR
                          (F)     (DEG/KT/KT) (MB)    (FT/S/D)
TANNER BANKS               58 60  280/ 12/ 12 1010.5S   5/210/14
S CLEMENTE BASIN           60 62  310/  6/  8 1010.1F   3/190/13
SAN NICOLAS IS.               60                N/A     3/190/13
SO. S. ROSA ISLA           57 58  290/  4/  6 1010.3F   5/290/10
W. S. BARBARA CH           57 57  230/  4/  4 1009.6F   5/300/10
M. S. BARBARA CH           57 56  230/  4/  6 1010.6F
S. MONICA BASIN            59 60  300/  4/  4 1010.4F   2/190/13
S PEDRO CHANNEL               61                N/A     2/170/13
OCEANSIDE OFFSHR              64                N/A     2/180/13
TORREY PINES OTR              65                N/A     3/210/13
LA JOLLA 1                 58 65  160/  4/  5 1010.6S
SAN DIEGO BAY                 68              1011.0S
POINT LOMA SOUTH              63                N/A     3/190/13

$$





USA.gov is the U.S. government's official web portal to all federal, state and local government web resources and services.